Flight Track Log - Related Links

Times and Time Zones

All times are in EDT time to prevent confusion due to time zone crossing. See the SWA1377 flight status page for this flight to view local times or setup timezone preferences in your user account.

Time Position Orientation Groundspeed Altitude Reporting Facility
EDT Latitude Longitude Course Direction KTS MPH feet Rate Location/Type
10:24AM 41.8047 -87.7625 90° East 112 129 2,200  Level Chicago Center
10:26AM 41.7978 -87.6833 97° East 243 280 4,100 2,226 Climbing Chicago Center
10:27AM 41.7775 -87.5856 106° East 260 299 6,800 3,435 Climbing Chicago Center
10:28AM 41.7708 -87.4731 95° East 300 345 11,200 4,161 Climbing Chicago Center
10:29AM 41.7675 -87.3181 92° East 351 404 15,400 3,774 Climbing Chicago Center
10:30AM 41.7500 -87.0282 90° East  Level FlightAware Approximate
10:30AM 41.7656 -87.1789 91° East 371 427 19,000  Level Chicago Center
10:31AM 41.7619 -87.0250 92° East 411 473 21,600 2,661 Climbing Chicago Center
10:32AM 41.7631 -86.8642 89° East 432 497 24,500 2,903 Climbing Chicago Center
10:33AM 41.7661 -86.6725 89° East 455 524 27,600 2,516 Climbing Chicago Center
10:34AM 41.7669 -86.4989 90° East 468 539 29,700 2,226 Climbing Chicago Center
10:35AM 41.7700 -86.3181 89° East 485 558 32,200 2,177 Climbing Chicago Center
10:36AM 41.7983 -86.1458 78° East 475 547 34,200 1,355 Climbing Chicago Center
10:37AM 41.8281 -85.9697 77° East 482 555 35,000 384 Climbing Chicago Center
10:38AM 41.8578 -85.7953 77° East 479 551 35,000  Level Chicago Center
10:39AM 41.8869 -85.6186 77° East 482 555 35,000  Level Chicago Center
10:40AM 41.9228 -85.4056 77° East 483 556 35,000  Level Chicago Center
10:40AM 41.9311 -85.3622 75° East 485 558 35,000  Level Cleveland Center
10:41AM 41.9531 -85.1850 80° East 480 552 35,000  Level Cleveland Center
10:42AM 41.9539 -85.0036 90° East 480 552 35,000  Level Cleveland Center
10:43AM 41.9525 -84.8247 91° East 475 547 35,000  Level Cleveland Center
10:44AM 41.9506 -84.6431 91° East 480 552 35,000  Level Cleveland Center
10:45AM 41.9483 -84.4642 91° East 480 552 35,000  Level Cleveland Center
10:46AM 41.9447 -84.2656 91° East 480 552 35,000  Level Cleveland Center
10:47AM 41.9419 -84.0869 91° East 480 552 35,000  Level Cleveland Center
10:48AM 41.9369 -83.9050 92° East 480 552 35,000  Level Cleveland Center
10:49AM 41.9356 -83.7264 91° East 480 552 35,000  Level Cleveland Center
10:50AM 41.9336 -83.5644 91° East 480 552 35,000  Level Cleveland Center
10:51AM 41.9322 -83.3689 90° East 475 547 35,000  Level Cleveland Center
10:52AM 41.9317 -83.2264 90° East 475 547 35,000  Level Cleveland Center
10:53AM 41.9297 -83.0336 91° East 475 547 35,000  Level Cleveland Center
10:54AM 41.9292 -82.8522 90° East 481 554 35,000 -300 Level Cleveland Center
10:55AM 41.9261 -82.6764 91° East 481 554 34,400 -750 Descending Cleveland Center
10:56AM 41.9253 -82.5006 90° East 481 554 33,500 -950 Descending Cleveland Center
10:57AM 41.9239 -82.3189 91° East 481 554 32,500 -950 Descending Cleveland Center
10:58AM 41.9222 -82.1431 91° East 481 554 31,600 -950 Descending Cleveland Center
10:59AM 41.9183 -81.9617 92° East 481 554 30,600 -1,050 Descending Cleveland Center
11:00AM 41.9264 -81.7889 86° East 475 547 29,500 -1,550 Descending Cleveland Center
11:01AM 41.9656 -81.6247 72° East 465 535 27,500 -2,000 Descending Cleveland Center
11:02AM 42.0025 -81.4633 73° East 451 519 25,500 -1,750 Descending Cleveland Center
11:03AM 42.0411 -81.2933 73° East 445 512 24,000 -750 Descending Cleveland Center
11:04AM 42.0794 -81.1369 72° East 430 495 24,000  Level Cleveland Center
11:05AM 42.1156 -80.9806 73° East 430 495 24,000  Level Cleveland Center
11:06AM 42.1514 -80.8211 73° East 441 507 24,000  Level Cleveland Center
11:07AM 42.1892 -80.6589 73° East 441 507 24,000  Level Cleveland Center
11:08AM 42.2247 -80.4989 73° East 436 502 24,000  Level Cleveland Center
11:09AM 42.2578 -80.3392 74° East 436 502 24,000  Level Cleveland Center
11:10AM 42.2947 -80.1761 73° East 443 510 24,000 -1,300 Level Cleveland Center
11:11AM 42.3275 -80.0300 73° East 443 510 21,400 -2,100 Descending Cleveland Center
11:12AM 42.3642 -79.8581 74° East 438 504 19,800 -1,800 Descending Cleveland Center
11:13AM 42.3944 -79.7172 74° East 412 474 17,800 -2,000 Descending Cleveland Center
11:14AM 42.4267 -79.5733 73° East 406 467 15,800 -2,150 Descending Cleveland Center
11:15AM 42.4544 -79.4406 74° East 382 440 13,500 -1,850 Descending Cleveland Center
11:16AM 42.5097 -79.3269 57° Northeast 370 426 12,100 -1,250 Descending Cleveland Center
11:17AM 42.5797 -79.2608 35° Northeast 323 372 11,000 -1,250 Descending Cleveland Center
11:18AM 42.6519 -79.2000 32° Northeast 311 358 9,600 -1,450 Descending Cleveland Center
11:19AM 42.7139 -79.1506 30° Northeast 293 337 8,100 -1,300 Descending Cleveland Center
11:20AM 42.7861 -79.0839 34° Northeast 288 331 7,000 -550 Descending Cleveland Center
11:21AM 42.8456 -79.0144 41° Northeast 277 319 7,000  Level Cleveland Center
11:22AM 42.9008 -78.9478 41° Northeast 271 312 7,000 -400 Level Cleveland Center
11:23AM 42.9542 -78.8897 39° Northeast 271 312 6,200 -758 Descending Cleveland Center
11:24AM 42.9833 -78.8500 45° Northeast 252 290 5,800 -1,263 Descending Buffalo TRACON
11:25AM 43.0333 -78.7833 44° Northeast 217 250 4,200 -1,250 Descending Buffalo TRACON
11:26AM 43.0333 -78.7167 90° East 192 221 3,300 -850 Descending Buffalo TRACON
11:27AM 43.0000 -78.6667 132° Southeast 144 166 2,500 -850 Descending Buffalo TRACON
11:28AM 42.9833 -78.6833 216° Southwest 110 127 1,600 -750 Descending Buffalo TRACON
11:29AM 42.9500 -78.7167 216° Southwest 113 130 1,000 -600 Descending Buffalo TRACON

Login

Don't have an account? Register now (free) for customized features, flight alerts, and more!